Theta_e
331 342 349 353 352 351 352 352 353 352 351 348 347 347 347 347 346 346 347 347 351 351 350 349 349 347 346 344 341 339 338 338 339 342 351 352 351 350 348 350 349 349 351
334 342 348 352 353 353 353 353 352 352 351 349 349 348 347 347 347 347 347 348 350 350 349 346 345 343 342 340 336 335 334 332 332 332 337 350 349 347 345 347 348 346 350
333 342 347 351 353 352 353 352 351 351 350 349 349 349 349 350 349 348 348 350 349 348 347 344 343 342 339 334 333 331 330 329 328 330 334 336 345 348 345 346 347 345 346
332 343 344 349 352 352 352 351 351 351 351 350 350 349 349 348 348 348 348 348 347 345 343 342 340 337 333 331 328 326 324 323 323 328 327 333 340 348 346 343 343 343 344
329 342 344 348 352 352 352 351 351 351 351 351 350 348 349 347 343 342 341 343 344 342 340 337 336 333 331 326 323 321 319 318 323 322 326 328 333 347 347 346 341 342 344
328 338 343 348 351 352 352 352 351 350 349 350 351 349 348 345 343 338 335 339 342 340 336 333 332 329 326 322 320 318 317 318 325 313 320 333 337 343 344 345 344 344 343
326 333 344 347 349 351 351 352 352 351 350 350 351 350 347 346 340 335 334 336 337 337 333 330 329 326 323 320 317 314 314 317 310 312 320 326 330 340 341 341 341 340 340
327 332 342 341 344 347 349 350 350 350 350 350 351 349 347 344 340 336 334 335 335 334 331 330 325 323 321 318 314 312 312 315 310 311 321 321 331 332 333 334 335 336 336
328 332 334 340 340 338 342 344 347 348 348 349 348 346 344 341 339 336 334 334 334 331 329 328 323 321 320 316 312 309 309 315 305 307 317 315 326 328 328 329 330 332 332
326 331 332 336 339 340 340 336 339 342 344 345 342 338 335 335 334 333 331 334 332 329 328 325 322 320 317 313 308 305 306 310 301 304 310 312 322 324 325 325 326 327 328
324 329 331 332 335 337 339 337 333 336 337 337 334 330 327 328 327 326 326 330 331 328 326 323 321 319 315 310 305 304 307 298 299 301 305 314 317 320 321 322 323 324 325
319 323 329 330 332 334 337 334 338 338 338 336 334 329 328 327 325 325 321 325 328 327 326 323 320 316 311 300 298 305 298 298 297 298 303 313 316 316 318 319 321 322 324
315 321 325 328 330 331 332 330 334 336 333 336 335 332 330 329 322 318 316 318 317 318 314 315 310 304 300 298 297 297 297 296 296 298 304 310 315 316 317 319 322 322 322
308 313 322 326 328 329 330 329 329 330 330 331 334 332 330 328 318 315 315 315 314 312 309 307 302 299 298 298 298 296 296 295 295 297 302 310 314 315 317 320 320 322 323
306 308 313 322 325 327 327 327 327 327 329 330 329 331 331 325 316 314 313 314 314 311 308 304 299 299 297 296 297 296 296 295 296 297 300 310 314 317 317 318 320 322 322
307 308 310 315 323 324 325 325 326 325 326 328 328 328 328 322 315 312 311 312 313 311 306 301 298 297 296 296 295 296 295 295 296 297 301 304 313 316 316 316 318 320 321
305 308 309 311 318 321 321 324 324 324 325 325 328 325 323 319 315 312 309 310 310 307 303 298 297 297 295 296 294 294 295 295 295 296 298 302 305 311 314 317 317 319 320
302 304 305 309 311 318 320 320 323 322 322 322 323 322 321 318 315 310 308 308 308 303 298 296 295 294 293 293 292 292 293 295 294 295 296 298 298 302 306 311 314 317 317
300 301 302 304 307 312 318 319 319 320 320 320 320 319 318 317 314 309 306 306 304 299 296 296 294 293 292 291 292 291 292 292 293 295 294 294 292 295 299 304 306 307 307
297 299 300 303 304 309 313 315 316 317 317 317 317 317 316 314 313 307 304 304 301 296 295 294 293 293 292 292 293 293 292 292 291 291 292 293 292 293 294 295 295 299 308
296 296 298 299 301 303 308 309 310 311 313 315 316 315 316 312 310 306 302 301 297 296 295 294 292 292 291 290 290 289 289 290 290 290 290 290 291 291 291 293 293 296 299
295 294 295 296 298 301 305 306 307 305 307 308 314 313 313 312 309 305 301 299 296 294 293 293 292 291 291 291 289 287 284 286 289 290 290 290 289 289 290 291 291 293 296
293 294 294 295 295 297 299 303 304 303 301 301 302 306 310 310 308 304 301 298 296 294 294 293 292 291 288 289 292 290 286 285 285 287 288 288 288 287 288 289 291 292 295
292 293 294 295 295 295 296 296 295 296 296 299 299 299 300 305 305 305 301 299 296 294 293 293 294 293 289 288 288 292 290 289 285 282 286 287 287 287 287 288 288 290 294
292 292 292 293 294 294 294 293 292 292 293 294 295 295 296 299 301 301 300 298 296 294 292 292 291 291 292 288 290 287 287 287 288 285 281 283 286 286 287 287 288 288 293
291 290 290 291 292 292 293 292 291 290 290 290 291 291 293 294 296 298 298 296 296 294 293 292 291 291 290 290 290 288 287 286 285 285 284 282 282 284 285 287 287 288 290
Wind_Speed
6 13 18 16 16 14 13 12 11 11 11 12 10 9 9 8 8 7 5 5 5 11 13 11 12 10 12 11 11 10 10 9 8 7 7 11 10 10 11 11 11 8 11
9 13 16 17 17 15 13 13 12 11 11 12 11 9 8 8 7 6 6 4 9 11 12 9 9 8 10 10 9 9 9 9 8 6 6 9 9 9 11 11 10 8 11
8 13 13 14 16 16 14 14 13 12 12 11 11 11 10 10 9 6 7 6 9 12 10 9 8 9 9 7 7 8 7 7 6 6 6 4 7 7 9 8 8 11 11
8 14 14 12 15 15 14 14 14 13 13 13 13 11 10 10 10 9 8 9 12 12 8 9 9 9 8 7 7 7 6 6 6 7 4 5 5 7 7 8 8 9 11
7 12 12 15 16 15 14 14 14 13 12 13 15 13 12 11 9 10 8 7 9 10 8 7 8 9 8 7 6 6 6 6 7 7 5 4 4 9 8 7 8 9 9
7 8 13 17 15 17 16 16 15 15 14 13 13 14 14 14 8 4 0 5 7 9 8 6 7 8 7 7 7 7 6 6 9 4 3 6 6 9 10 10 10 7 7
7 5 12 18 14 14 15 16 16 15 14 13 13 14 15 13 8 7 5 5 7 6 7 7 8 8 7 7 7 6 6 9 4 3 6 7 5 9 8 9 9 9 9
8 7 8 10 12 12 14 15 15 14 14 13 13 15 14 12 10 9 7 7 7 7 7 8 7 8 7 7 6 5 5 6 3 4 6 6 9 4 5 4 5 5 6
6 8 6 8 8 10 11 12 13 13 12 12 14 14 12 13 11 9 8 9 9 8 8 8 7 7 8 7 6 4 4 8 6 4 7 4 7 4 4 3 3 4 4
4 7 7 8 9 8 7 10 11 12 11 11 13 12 11 11 11 9 8 8 10 10 10 9 9 7 7 6 5 1 4 7 3 4 5 4 7 5 5 4 2 2 2
4 7 8 8 9 10 9 9 10 12 10 11 11 10 8 5 7 8 7 9 9 10 10 10 10 9 8 5 3 2 3 2 3 4 3 7 6 4 3 3 3 3 2
9 8 7 7 7 8 9 8 9 7 7 7 6 7 5 6 6 7 7 8 9 10 11 11 9 9 8 4 3 3 1 2 3 4 3 7 5 3 1 1 1 2 4
10 7 9 8 8 8 7 5 5 6 5 5 8 8 6 5 5 5 4 4 4 7 4 6 5 3 5 3 2 3 2 3 2 3 4 5 5 3 0 2 3 3 2
7 9 10 10 8 7 5 5 5 6 5 6 7 6 7 4 5 5 5 5 5 4 5 5 3 4 2 3 4 3 3 3 2 3 4 6 5 2 1 3 3 4 4
5 6 7 10 10 8 8 5 5 5 6 8 8 9 6 6 5 5 5 5 5 6 5 6 5 4 4 3 2 4 4 3 3 2 2 6 7 5 2 3 3 4 5
7 8 7 7 10 8 8 7 5 4 6 8 8 9 8 6 5 5 5 5 5 7 5 5 5 5 5 5 4 4 4 3 3 2 3 3 8 9 4 2 2 3 4
9 6 6 5 7 8 7 6 4 4 4 4 6 7 8 7 7 7 5 5 5 5 7 5 4 4 4 4 5 4 3 3 3 3 2 3 4 10 12 8 3 6 5
17 16 11 5 5 6 7 5 4 3 3 2 4 4 7 7 8 6 5 5 5 5 5 5 4 4 4 4 3 3 4 3 3 3 1 2 3 3 7 10 10 9 8
15 14 15 12 4 2 2 3 3 5 3 3 2 3 7 7 6 6 5 5 6 5 5 5 3 4 4 3 4 3 3 3 3 2 3 4 3 3 3 5 7 7 5
12 13 13 11 12 7 5 4 4 1 1 2 3 3 5 4 6 5 5 6 6 6 6 5 6 4 4 6 5 4 2 3 2 3 3 3 2 2 3 3 1 2 4
15 16 16 15 14 7 5 4 3 2 2 1 1 2 5 6 6 4 3 4 5 8 8 8 5 7 3 4 5 3 2 1 2 3 3 3 3 3 3 3 1 1 2
15 15 16 15 14 10 6 4 4 4 4 3 3 1 1 3 6 6 5 4 5 4 6 7 6 4 3 7 5 4 2 3 3 5 4 4 5 3 3 4 4 3 2
14 14 15 15 13 13 12 5 5 5 4 5 4 3 3 2 1 5 6 6 7 6 7 7 8 10 5 5 7 7 4 5 3 2 5 4 6 4 4 4 5 5 5
10 9 13 14 14 12 13 9 8 5 4 4 1 3 4 3 4 3 5 5 5 4 6 8 8 10 6 9 1 7 1 5 5 2 2 4 5 5 6 4 4 5 5
7 9 9 11 13 14 13 11 7 6 4 4 4 6 5 3 3 5 3 5 5 5 5 7 6 8 6 6 8 3 1 1 1 5 4 4 3 4 4 5 5 5 5
7 8 8 10 10 9 9 11 10 9 7 6 7 6 5 4 3 3 4 4 5 5 6 6 7 8 7 5 7 5 6 6 5 4 4 2 4 4 5 5 6 5 5
Wind_Direction
160 143 156 163 165 164 164 155 146 146 146 142 144 141 137 132 127 124 116 111 128 113 106 97 85 89 80 69 58 51 55 54 50 41 53 83 83 73 55 53 75 65 60
130 146 158 164 167 168 166 159 154 153 153 153 154 157 154 147 140 140 148 143 137 114 106 99 89 83 73 65 60 47 42 40 29 11 356 104 87 75 68 61 69 71 66
140 144 160 167 166 166 167 159 158 159 164 165 167 166 164 145 125 122 156 148 142 114 110 108 99 89 85 71 55 53 33 34 10 344 309 243 100 98 84 76 77 75 69
140 144 165 167 167 167 163 163 162 167 175 174 166 161 152 142 131 109 98 117 111 104 111 111 106 101 92 72 54 41 34 13 342 331 331 25 99 96 112 101 88 78 80
151 146 168 166 168 168 168 168 166 176 179 179 173 173 170 160 141 113 100 96 112 116 115 109 111 107 93 82 59 36 25 358 330 325 46 351 9 81 64 133 97 78 81
154 156 153 169 176 171 173 177 175 180 185 187 186 179 174 161 146 162 283 160 140 126 119 120 114 102 91 78 68 51 26 358 318 28 6 75 57 72 74 78 94 85 92
154 159 152 166 179 184 183 181 183 187 190 194 192 187 171 165 160 178 187 205 193 150 125 129 117 105 94 80 70 51 24 350 31 39 55 40 38 71 61 53 73 84 78
159 163 149 170 175 188 189 191 192 193 194 199 202 178 180 151 165 190 200 194 190 167 150 140 126 114 117 98 81 56 13 0 23 32 85 58 10 75 81 70 70 78 86
172 152 166 166 195 198 192 188 192 198 200 199 181 178 175 151 157 181 196 192 179 170 162 144 137 140 131 118 94 57 16 14 61 28 71 44 3 60 70 54 67 85 95
199 164 195 168 177 192 197 200 199 194 196 195 175 165 162 155 150 159 181 188 180 176 165 159 153 134 123 114 102 70 356 351 56 56 62 33 18 50 53 41 52 80 96
224 191 194 196 181 188 193 193 198 193 186 175 169 167 151 149 144 153 172 183 189 176 169 163 161 151 132 129 155 238 328 16 72 60 69 37 23 23 40 44 40 65 86
209 215 194 207 200 188 196 181 184 187 181 175 175 164 165 156 154 165 173 183 180 158 169 168 161 149 161 172 198 224 104 54 68 79 59 35 14 12 20 27 46 104 100
207 192 193 196 204 198 198 180 180 186 175 182 182 169 176 169 165 158 142 159 147 147 149 154 138 177 220 155 118 98 119 84 90 82 77 47 16 357 254 158 119 97 149
234 202 190 192 192 201 194 192 174 177 180 193 201 181 179 168 163 160 147 161 152 155 158 144 166 219 140 93 113 106 70 61 63 92 70 47 11 299 200 126 140 148 150
260 259 220 183 192 191 196 194 188 181 186 188 195 206 179 179 163 154 157 162 164 162 162 160 165 160 156 150 132 121 94 75 65 68 89 55 18 9 142 140 153 164 146
241 223 221 201 188 187 198 201 196 192 185 173 192 201 192 160 147 156 174 176 171 166 157 151 162 165 170 155 153 127 118 108 89 66 119 80 52 33 71 92 144 151 175
3 314 206 211 186 183 197 200 207 197 202 171 192 184 164 154 159 163 169 171 162 149 145 144 158 158 152 154 152 136 119 110 109 98 97 149 94 54 47 29 321 223 143
12 3 357 302 186 177 184 186 183 206 208 198 180 169 159 162 160 165 165 173 162 146 144 146 159 162 162 162 152 163 139 119 105 120 104 77 85 84 53 48 39 58 67
10 7 0 356 319 199 140 165 182 183 182 191 176 167 165 173 175 159 168 173 156 148 148 152 157 153 159 162 152 140 135 130 155 144 119 77 64 81 105 68 64 47 34
14 16 16 9 1 33 55 32 10 18 161 153 175 164 164 167 185 166 173 171 156 151 158 165 168 177 158 160 134 121 141 156 172 154 155 134 133 97 119 137 31 25 6
27 25 21 23 13 29 25 41 25 354 349 46 108 168 180 164 177 186 178 175 159 171 180 177 158 166 162 144 93 59 37 151 213 199 172 169 171 164 139 131 125 70 352
24 27 26 25 19 24 20 26 44 20 27 31 349 87 354 146 165 173 179 182 176 157 173 177 164 153 159 172 145 127 167 306 251 200 182 179 188 175 177 177 179 185 108
30 30 31 27 23 21 16 19 15 35 9 18 1 7 350 3 140 184 195 187 178 179 192 192 179 175 161 213 195 147 146 214 146 213 206 190 175 179 197 191 181 194 157
29 25 36 32 28 21 18 31 30 29 357 334 316 26 355 330 269 226 208 218 201 201 199 196 194 194 147 183 241 241 179 147 160 170 252 203 192 198 182 188 194 206 168
33 36 38 36 34 25 25 29 31 21 356 334 6 15 336 301 282 288 278 236 227 210 225 201 201 204 202 172 193 136 123 254 202 137 179 215 213 195 193 182 181 203 184
25 31 34 40 36 27 30 26 29 25 4 10 359 10 352 345 304 243 264 269 251 232 216 223 218 212 210 208 202 190 169 167 194 165 134 167 181 221 176 183 187 196 202